User: anonymous   Login
Location: Unspecified
(0.0000°N, 0.0000°E)
Time: 04:30:52
(UTC+00:00)
Language:

Optus B3 - Orbit

View from above orbital plane
View from above orbital plane
View from above satellite
View from above satellite

Ground track
Ground track

The orbit data is extracted from the following two-line orbital elements,

1 23227U 94055A   14294.62271745 -.00000076  00000-0  00000+0 0  5824
2 23227 005.7631 058.0913 0006560 147.8261 212.5337 01.00274034 73769
Epoch (UTC): 21 October 2014 14:56:42
Eccentricity: 0.0006560
inclination: 5.7631°
perigee height: 35758 km
apogee height: 35813 km
right ascension of ascending node: 58.0913°
argument of perigee: 147.8261°
revolutions per day: 1.00274034
mean anomaly at epoch: 212.5337°
orbit number at epoch: 7376

The dashed part of the orbit path shows where the satellite is in the earth's shadow,  

DLR